Terminal Aerodrome Forecast
Issued by NWS Charleston, WV

Current Version | Previous Version | Graphics & Text | Print | Product List | Glossary On
Versions: 1 2 3 4 5 6 7 8 9 10 11 12 13 14 15 16 17 18 19 20 21 22 23 24 25 26 27 28
982
FTUS41 KRLX 301129
TAFCRW
TAF
KCRW 301129Z 3012/0112 11003KT P6SM -SHRA OVC050
     FM301500 20008G18KT 6SM -SHRA VCTS OVC035CB
     FM301700 21008G18KT 3SM SHRA SCT010 OVC030
     FM302200 24007G16KT P6SM OVC030=

USA.gov is the U.S. government's official web portal to all federal, state and local government web resources and services.